#timestamp,LO_Frequency,Hit,StdDev 
1693512015.9,286046998.2,N
1693512035.7,286046999.8,N
1693512055.5,286046999.9,N
1693512075.3,286047000.5,N
1693512095.2,286047000.4,N
1693512115.0,286047000.9,N
1693512115.9,286047000.9,N
1693512135.8,286047000.5,N
1693512155.6,286047001.5,N
1693512175.4,286047000.9,N
1693512195.3,286047001.2,N
1693512215.1,286046998.4,N
1693512216.0,286046998.4,N
1693512235.8,286046998.5,N
1693512255.7,286046998.1,N
1693512275.5,286047001.1,N
1693512295.3,286047001.1,N
1693512315.2,286047000.9,N
1693512335.9,286047000.3,N
1693512355.7,286046999.8,N
1693512375.6,286046999.7,N
1693512395.4,286047000.5,N
1693512415.2,286046999.7,N
1693512435.1,286047004.4,Y
1693512436.0,286047004.4,P
1693512455.8,286047006.4,N
1693512475.6,286047001.7,N
1693512495.5,286047000.4,N
1693512515.3,286047001.1,N
1693512535.1,286047001.2,N
1693512555.9,286046998.4,N
1693512575.7,286046998.4,N
1693512595.5,286046999.0,N
1693512615.4,286046998.4,N
1693512635.2,286046999.1,N
1693512655.0,286046998.7,N
1693512655.9,286046998.7,N
1693512675.8,286046998.6,N
1693512695.6,286046998.3,N
1693512715.4,286047000.8,N
1693512735.3,286047001.0,N
1693512755.1,286047001.0,N
1693512756.0,286047001.0,N
1693512775.8,286046998.7,N
1693512795.7,286046998.8,N
1693512815.5,286046998.8,N
1693512835.3,286046998.4,N
1693512855.2,286046998.5,N
1693512875.9,286047000.6,N
1693512895.7,286047000.7,N
1693512915.6,286047000.3,N
1693512935.4,286047001.2,N
1693512955.2,286047000.6,N
1693512975.1,286046999.9,N
1693512976.0,286046999.9,N
1693512995.8,286047000.1,N
1693513015.6,286047000.4,N
1693513035.5,286047002.1,N
1693513055.3,286047001.5,N
1693513075.1,286047001.5,N
1693513095.9,286047002.4,N
1693513115.7,286047001.9,N
1693513135.5,286047002.7,N
1693513155.4,286047001.9,N
1693513175.2,286047001.4,N
1693513195.0,286047001.4,N
1693513195.9,286047001.4,N
1693513215.8,286047004.3,Y
1693513235.6,286047001.8,P
1693513255.4,286047005.7,P
1693513275.3,286047003.2,N
1693513295.1,286047001.9,N
1693513296.0,286047001.9,N
1693513315.8,286047001.6,N
1693513335.7,286047004.3,N
1693513355.5,286047002.5,N
1693513375.3,286046999.8,N
1693513395.2,286047002.0,N
1693513415.9,286047001.8,N
1693513435.7,286047002.4,N
1693513455.6,286047003.9,N
1693513475.4,286047003.3,N
1693513495.2,286047002.9,N
1693513515.1,286047005.1,Y
1693513516.0,286047005.1,P
1693513535.8,286047002.6,N
1693513555.6,286047000.2,N
1693513575.5,286047002.7,N
1693513595.3,286047000.3,N
1693513615.1,286047002.6,N
1693513635.9,286047000.2,N
1693513655.7,286047001.9,N
1693513675.5,286047004.8,Y
1693513695.4,286047001.2,P
1693513715.2,286046998.2,P
1693513735.0,286046998.3,N
1693513735.9,286046998.3,N
1693513755.8,286046998.7,N
1693513775.6,286046998.3,N
1693513795.4,286046998.9,N
1693513815.3,286046998.2,N
1693513835.1,286046998.1,N
1693513855.8,286046998.8,N
1693513875.7,286046998.7,N
1693513895.5,286046998.2,N
1693513915.3,286047000.6,N
1693513935.2,286047000.4,N
1693513955.9,286047000.6,N
1693513975.7,286046998.2,N
1693513995.6,286047001.1,N
1693514015.4,286047000.0,N
1693514035.2,286047000.0,N
1693514055.1,286047002.8,N
1693514056.0,286047002.8,N
1693514075.8,286047000.4,N
1693514095.6,286047001.1,N
1693514115.5,286047000.6,N
1693514135.3,286047000.5,N
1693514155.1,286047000.4,N
1693514175.9,286047000.3,N
1693514195.7,286047002.5,N
1693514215.5,286046999.9,N
1693514235.4,286047000.2,N
1693514255.2,286047002.3,N
1693514275.0,286047002.1,N
1693514275.9,286047002.1,N
1693514295.8,286047002.2,N
1693514315.6,286047002.1,N
1693514335.4,286047002.1,N
1693514355.3,286047001.9,N
1693514375.1,286047001.9,N
1693514395.8,286047004.4,Y
1693514415.7,286047002.1,P
1693514435.5,286047001.5,N
1693514455.3,286047004.4,P
1693514475.2,286047003.7,N
1693514495.0,286047003.6,N
1693514495.9,286047003.6,N
1693514515.7,286047003.2,N
1693514535.6,286047005.9,Y
1693514555.4,286047000.3,P
1693514575.2,286046998.1,N
1693514595.1,286046999.1,N
1693514596.0,286046999.1,N
1693514615.8,286046999.0,N
1693514635.6,286047000.8,N
1693514655.5,286046998.6,N
1693514675.3,286046998.4,N
1693514695.1,286047000.1,N
1693514715.9,286046998.1,N
1693514735.7,286046998.3,N
1693514755.5,286047000.3,N
1693514775.4,286047000.5,N
1693514795.2,286046999.9,N
1693514815.0,286046998.2,N
1693514815.9,286046998.2,N
1693514835.8,286047002.1,N
1693514855.6,286047000.5,N
1693514875.4,286047000.2,N
1693514895.3,286046999.7,N
1693514915.1,286047001.9,N
1693514935.8,286047003.7,N
1693514955.7,286047001.3,N
1693514975.5,286047002.5,N
1693514995.3,286046999.8,N
1693515015.2,286046999.7,N
1693515035.0,286047001.7,N
1693515035.9,286047001.7,N
1693515055.7,286047004.1,N
1693515075.6,286047001.4,N
1693515095.4,286047003.2,N
1693515115.2,286047003.5,N
1693515135.1,286047005.5,Y
1693515136.0,286047005.5,P
1693515155.8,286047004.0,N
1693515175.7,286047004.1,N
1693515195.5,286047001.8,N
1693515215.3,286047001.7,N
1693515235.2,286047001.5,N
1693515255.9,286047003.9,N
1693515275.7,286047001.3,N
1693515295.6,286047003.8,N
1693515315.4,286047004.3,N
1693515335.2,286047003.9,N
1693515355.0,286047001.7,N
1693515356.0,286047001.7,N
1693515375.8,286047001.5,N
1693515395.6,286047001.8,N
1693515415.5,286047002.4,N
1693515435.3,286047002.5,N
1693515455.1,286047001.5,N
1693515475.9,286047002.0,N
1693515495.7,286047001.4,N
1693515515.5,286047002.0,N
1693515535.3,286047001.4,N
1693515555.2,286047001.8,N
1693515575.0,286047001.5,N
1693515575.9,286047001.5,N
1693515595.8,286047003.9,Y
